Location: Adaghas
(31.2259°N, 9.0496°W)
Time: 04:08:23
(UTC+00:00)

Exosat Rocket - Pass Details

Date: 18 September 2020
Orbit: 761 x 2514 km, 72.3° (Epoch: 23 October)

Event Time Altitude Azimuth Distance (km) Brightness Sun altitude
Rises 20:52:34 0° 208° (SSW) 4,085 7.3 -29.0°
Reaches altitude 10° 20:55:39 10° 212° (SSW) 2,897 6.6 -29.6°
Maximum altitude 21:01:52 53° 289° (WNW) 1,059 4.4 -30.9°
Drops below altitude 10° 21:06:54 10° 7° (N) 2,339 6.2 -31.8°
Sets 21:09:09 0° 12° (NNE) 3,231 6.9 -32.3°
